Weather History for Logansport, IN

Change the Weather History Date:

Tuesday, February 25, 2014

  Actual Average Record
Temperature  
Mean Temperature 18 °F -  
Max Temperature 24 °F 44 °F 41 °F (2013)
Min Temperature 12 °F 24 °F 12 °F (2014)
Degree Days  
Heating Degree Days 47    
Moisture  
Dew Point 11 °F    
Average Humidity 69    
Maximum Humidity 86    
Minimum Humidity 53    
Precipitation  
Precipitation 0.00 in - - ()
Sea Level Pressure  
Sea Level Pressure 30.18 in    
Wind  
Wind Speed 9 mph (WNW)    
Max Wind Speed 17 mph    
Max Gust Speed 25 mph    
Visibility 10 miles    
Events Snow    
Averages and records for this station are not official NWS values.
T = Trace of Precipitation, MM = Missing Value Source: NWS Daily Summary

Daily Weather History Graph

Daily Weather History Graph

Search for Another Location

Airport:

Trip Planner

Search our weather history database for the weather conditions in past years. The results will help you decide how hot, cold, wet, or windy it might be!

Date:

Astronomy

Feb. 25, 2014 Rise Set
Actual Time 7:25 AM EST 6:32 PM EST
Civil Twilight 6:57 AM EST 6:59 PM EST
Nautical Twilight 6:26 AM EST 7:31 PM EST
Astronomical Twilight 5:54 AM EST 8:03 PM EST
Moon 4:20 AM EST (2/25) 2:36 PM EST (2/25)
Length of Visible Light 12h 02m
Length of Day
11h 06m
Waning Crescent, 18% of the Moon is Illuminated
Feb 25
Waning Crescent
Mar 1
New
Mar 8
First Quarter
Mar 16
Full
Mar 23
Last Quarter

Hourly Weather History & Observations

Time (EST) Temp. Windchill Dew Point Humidity Pressure Visibility Wind Dir Wind Speed Gust Speed Precip Events Conditions
12:15 AM 21.2 °F 11.7 °F 14.0 °F 74% 30.20 in 10.0 mi West 8.1 mph - N/A   Overcast
12:35 AM 21.2 °F 9.5 °F 12.2 °F 68% 30.21 in 10.0 mi West 11.5 mph - N/A   Mostly Cloudy
12:55 AM 21.2 °F 12.6 °F 12.2 °F 68% 30.21 in 10.0 mi WNW 6.9 mph - N/A   Mostly Cloudy
1:15 AM 21.2 °F 12.6 °F 12.2 °F 68% 30.20 in 10.0 mi WNW 6.9 mph - N/A   Overcast
1:35 AM 21.2 °F 11.7 °F 12.2 °F 68% 30.20 in 10.0 mi WNW 8.1 mph - N/A   Overcast
1:55 AM 21.2 °F 11.7 °F 10.4 °F 63% 30.20 in 10.0 mi WNW 8.1 mph - N/A   Overcast
2:15 AM 21.2 °F 12.6 °F 10.4 °F 63% 30.21 in 10.0 mi WNW 6.9 mph - N/A   Overcast
2:30 AM 21.2 °F 10.9 °F 10.4 °F 63% 30.21 in 10.0 mi WNW 9.2 mph - N/A   Overcast
2:55 AM 21.2 °F 13.6 °F 12.2 °F 68% 30.22 in 10.0 mi NW 5.8 mph - N/A   Overcast
3:10 AM 19.4 °F 8.6 °F 10.4 °F 68% 30.22 in 7.0 mi NW 9.2 mph 16.1 mph N/A Snow Light Snow
4:55 AM 19.4 °F 11.5 °F 14.0 °F 80% 30.19 in 5.0 mi West 5.8 mph - N/A Snow Light Snow
5:15 AM 19.4 °F 12.8 °F 14.0 °F 80% 30.19 in 7.0 mi WNW 4.6 mph - N/A Snow Light Snow
5:35 AM 19.4 °F 12.8 °F 14.0 °F 80% 30.19 in 10.0 mi West 4.6 mph - N/A   Overcast
5:55 AM 17.6 °F 10.7 °F 14.0 °F 86% 30.19 in 10.0 mi West 4.6 mph - N/A   Overcast
6:15 AM 17.6 °F 10.7 °F 14.0 °F 86% 30.19 in 10.0 mi West 4.6 mph - N/A   Overcast
6:35 AM 17.6 °F 9.3 °F 14.0 °F 86% 30.19 in 10.0 mi West 5.8 mph - N/A   Overcast
6:55 AM 17.6 °F 9.3 °F 12.2 °F 79% 30.20 in 10.0 mi West 5.8 mph - N/A   Overcast
7:15 AM 17.6 °F 9.3 °F 12.2 °F 79% 30.21 in 10.0 mi West 5.8 mph - N/A   Overcast
7:35 AM 17.6 °F 9.3 °F 12.2 °F 79% 30.21 in 10.0 mi West 5.8 mph - N/A   Overcast
7:55 AM 17.6 °F 6.4 °F 12.2 °F 79% 30.21 in 10.0 mi West 9.2 mph - N/A   Overcast
8:15 AM 17.6 °F 9.3 °F 12.2 °F 79% 30.22 in 10.0 mi WNW 5.8 mph - N/A   Mostly Cloudy
8:35 AM 19.4 °F 9.5 °F 12.2 °F 74% 30.22 in 10.0 mi WNW 8.1 mph - N/A   Mostly Cloudy
8:55 AM 19.4 °F 11.5 °F 12.2 °F 74% 30.22 in 10.0 mi WNW 5.8 mph - N/A   Overcast
9:15 AM 19.4 °F 9.5 °F 12.2 °F 74% 30.23 in 10.0 mi West 8.1 mph - N/A   Overcast
9:35 AM 19.4 °F 9.5 °F 12.2 °F 74% 30.22 in 10.0 mi WNW 8.1 mph - N/A   Overcast
9:55 AM 19.4 °F 10.4 °F 12.2 °F 74% 30.22 in 10.0 mi West 6.9 mph - N/A   Overcast
10:15 AM 21.2 °F 13.6 °F 12.2 °F 68% 30.22 in 10.0 mi West 5.8 mph - N/A   Scattered Clouds
10:35 AM 21.2 °F 11.7 °F 12.2 °F 68% 30.21 in 10.0 mi West 8.1 mph - N/A   Scattered Clouds
10:55 AM 21.2 °F 11.7 °F 12.2 °F 68% 30.22 in 10.0 mi West 8.1 mph - N/A   Scattered Clouds
11:15 AM 23.0 °F 13.9 °F 12.2 °F 63% 30.22 in 10.0 mi West 8.1 mph - N/A   Scattered Clouds
11:35 AM 23.0 °F 13.9 °F 12.2 °F 63% 30.21 in 10.0 mi West 8.1 mph - N/A   Scattered Clouds
12:15 PM 23.0 °F 13.9 °F 12.2 °F 63% 30.20 in 10.0 mi WNW 8.1 mph - N/A   Clear
12:35 PM 23.0 °F 14.7 °F 12.2 °F 63% 30.20 in 10.0 mi WNW 6.9 mph - N/A   Clear
12:55 PM 23.0 °F 13.1 °F 12.2 °F 63% 30.19 in 10.0 mi West 9.2 mph - N/A   Clear
1:15 PM 23.0 °F 13.9 °F 12.2 °F 63% 30.18 in 10.0 mi WNW 8.1 mph - N/A   Clear
1:35 PM 24.8 °F 15.3 °F 14.0 °F 64% 30.17 in 10.0 mi WNW 9.2 mph - N/A   Clear
1:55 PM 24.8 °F 14.0 °F 14.0 °F 64% 30.16 in 10.0 mi WNW 11.5 mph - N/A   Scattered Clouds
2:15 PM 24.8 °F 14.0 °F 14.0 °F 64% 30.16 in 10.0 mi West 11.5 mph 17.3 mph N/A   Mostly Cloudy
2:35 PM 23.0 °F 11.7 °F 14.0 °F 68% 30.16 in 10.0 mi WNW 11.5 mph - N/A   Mostly Cloudy
2:55 PM 23.0 °F 11.1 °F 14.0 °F 68% 30.16 in 10.0 mi West 12.7 mph - N/A   Overcast
3:15 PM 23.0 °F 12.4 °F 14.0 °F 68% 30.16 in 10.0 mi West 10.4 mph - N/A   Overcast
3:35 PM 23.0 °F 11.1 °F 14.0 °F 68% 30.16 in 10.0 mi West 12.7 mph 18.4 mph N/A   Overcast
3:55 PM 23.0 °F 10.1 °F 14.0 °F 68% 30.16 in 10.0 mi West 15.0 mph 20.7 mph N/A   Overcast
4:15 PM 23.0 °F 12.4 °F 14.0 °F 68% 30.16 in 10.0 mi West 10.4 mph 19.6 mph N/A   Overcast
4:30 PM 23.0 °F 10.6 °F 14.0 °F 68% 30.15 in 10.0 mi West 13.8 mph 19.6 mph N/A   Mostly Cloudy
4:55 PM 23.0 °F 11.1 °F 14.0 °F 68% 30.15 in 10.0 mi West 12.7 mph - N/A   Mostly Cloudy
5:15 PM 23.0 °F 10.6 °F 14.0 °F 68% 30.14 in 10.0 mi West 13.8 mph 21.9 mph N/A   Overcast
5:35 PM 23.0 °F 10.1 °F 14.0 °F 68% 30.14 in 10.0 mi West 15.0 mph 19.6 mph N/A   Mostly Cloudy
5:55 PM 23.0 °F 10.1 °F 14.0 °F 68% 30.13 in 10.0 mi West 15.0 mph 20.7 mph N/A   Scattered Clouds
6:15 PM 21.2 °F 7.8 °F 14.0 °F 74% 30.12 in 10.0 mi West 15.0 mph 23.0 mph N/A   Mostly Cloudy
6:35 PM 21.2 °F 10.1 °F 14.0 °F 74% 30.12 in 10.0 mi West 10.4 mph 18.4 mph N/A   Scattered Clouds
6:55 PM 21.2 °F 9.5 °F 14.0 °F 74% 30.12 in 10.0 mi West 11.5 mph - N/A   Mostly Cloudy
7:15 PM 21.2 °F 8.3 °F 12.2 °F 68% 30.12 in 10.0 mi West 13.8 mph 18.4 mph N/A   Mostly Cloudy
7:35 PM 21.2 °F 10.9 °F 12.2 °F 68% 30.13 in 10.0 mi WNW 9.2 mph - N/A   Scattered Clouds
7:55 PM 21.2 °F 8.9 °F 12.2 °F 68% 30.13 in 10.0 mi West 12.7 mph 19.6 mph N/A   Mostly Cloudy
8:15 PM 19.4 °F 5.0 °F 12.2 °F 74% 30.13 in 10.0 mi West 16.1 mph 25.3 mph N/A   Mostly Cloudy
8:35 PM 19.4 °F 5.0 °F 8.6 °F 63% 30.13 in 10.0 mi West 16.1 mph 25.3 mph N/A   Scattered Clouds
8:55 PM 17.6 °F 2.2 °F 6.8 °F 63% 30.13 in 10.0 mi West 17.3 mph - N/A   Clear
9:15 PM 17.6 °F 3.7 °F 6.8 °F 63% 30.13 in 10.0 mi West 13.8 mph 25.3 mph N/A   Scattered Clouds
9:35 PM 17.6 °F 2.2 °F 3.2 °F 53% 30.14 in 10.0 mi WNW 17.3 mph - N/A   Scattered Clouds
9:55 PM 14.0 °F -1.4 °F 3.2 °F 62% 30.15 in 10.0 mi West 15.0 mph 20.7 mph N/A   Clear
10:15 PM 14.0 °F -0.8 °F 5.0 °F 67% 30.15 in 10.0 mi West 13.8 mph - N/A   Clear
10:35 PM 14.0 °F -1.4 °F 3.2 °F 62% 30.15 in 10.0 mi West 15.0 mph 20.7 mph N/A   Clear
10:55 PM 14.0 °F 1.2 °F 1.4 °F 57% 30.15 in 10.0 mi WNW 10.4 mph 21.9 mph N/A   Clear
11:15 PM 12.2 °F -1.0 °F 3.2 °F 67% 30.15 in 10.0 mi WNW 10.4 mph 18.4 mph N/A   Clear
11:35 PM 12.2 °F -3.7 °F 1.4 °F 62% 30.16 in 10.0 mi West 15.0 mph 24.2 mph N/A   Clear
11:55 PM 12.2 °F -2.5 °F 1.4 °F 62% 30.16 in 10.0 mi WNW 12.7 mph 21.9 mph N/A   Clear